Lapse_Rate
6.7 6.7 6.7 6.8 6.8 6.7 6.7 6.6 6.6 6.5 6.3 6.2 6.1 6.1 6.2 6.2 6.2 6.3 6.3 6.3 6.2 6.4 6.4 6.4 6.3 6.2 6.4 6.6 6.1 5.8 5.8 6.0 6.0 6.6 6.3 6.0 5.6 5.9 6.1 6.2 6.1 6.1 6.2
6.7 6.6 6.6 6.6 6.6 6.6 6.6 6.6 6.5 6.4 6.3 6.3 6.2 6.2 6.2 6.3 6.3 6.4 6.4 6.4 6.2 6.2 6.2 6.1 6.2 6.3 6.3 6.5 6.5 6.2 5.6 5.8 5.8 6.0 6.2 5.8 5.6 5.7 5.8 6.2 6.3 6.2 6.1
6.4 6.4 6.5 6.5 6.4 6.5 6.4 6.3 6.2 6.2 6.2 6.3 6.3 6.3 6.2 6.0 6.1 6.2 6.2 6.1 6.1 5.8 6.1 6.2 6.2 6.4 6.5 6.4 6.6 6.5 6.5 5.8 5.8 6.0 6.2 6.0 5.6 5.3 5.6 5.8 6.1 6.2 6.1
6.2 6.2 6.2 6.3 6.3 6.2 6.1 6.1 6.1 6.1 6.1 6.0 6.2 6.3 6.2 6.1 6.0 6.3 6.3 6.4 6.0 6.7 6.6 6.4 6.4 6.1 6.3 6.3 6.2 6.4 6.1 6.3 5.8 6.0 6.1 6.2 5.8 6.1 5.7 5.7 5.8 6.1 6.1
6.4 6.3 6.3 6.2 6.2 6.1 5.8 5.7 5.6 5.8 5.8 5.9 6.0 6.2 6.6 6.5 6.3 6.3 6.3 6.1 7.2 7.0 6.7 6.6 6.5 6.3 6.0 6.0 6.1 5.8 6.2 6.3 6.1 5.9 6.0 6.2 6.3 6.4 6.2 5.8 5.5 5.6 5.9
6.4 6.3 6.2 6.1 6.1 5.9 5.8 5.7 5.9 5.9 5.8 6.1 6.1 6.4 6.5 6.5 6.6 6.6 6.6 7.0 7.0 6.8 6.8 6.6 6.6 6.5 6.3 5.8 5.7 5.7 5.7 5.9 6.2 5.9 5.9 5.9 6.1 6.2 6.0 5.9 5.4 5.2 5.5
6.2 6.1 6.1 6.1 5.9 5.8 5.9 6.0 5.9 5.9 6.1 6.2 6.5 6.7 7.0 7.0 7.1 7.0 7.0 7.2 6.9 6.9 6.8 6.6 6.7 6.5 6.4 6.3 5.6 5.6 5.6 5.7 5.9 6.1 6.0 6.3 6.2 6.2 6.2 5.7 5.5 5.2 5.3
6.0 6.0 5.9 5.9 6.0 6.2 6.3 6.3 6.5 6.6 6.7 6.8 6.8 7.0 7.1 6.9 7.3 7.2 6.8 6.9 7.1 6.9 7.1 7.1 6.9 6.8 7.0 6.7 6.5 5.7 5.4 5.5 5.6 5.8 6.2 6.3 6.2 6.0 6.0 6.0 5.8 5.1 5.0
6.0 6.0 6.2 6.4 6.6 6.4 6.3 6.3 6.5 6.8 6.7 6.8 7.0 6.9 6.9 6.7 6.6 6.4 6.7 6.9 7.1 7.0 6.9 7.1 7.1 7.3 7.1 7.0 6.8 6.5 5.9 5.5 5.2 5.6 5.7 6.0 6.2 6.1 6.0 6.3 5.8 5.5 4.8
6.3 6.4 6.7 6.7 6.6 6.5 6.5 6.6 6.7 6.7 6.6 6.6 6.7 6.7 6.7 6.6 6.4 6.3 6.4 6.5 6.5 6.9 6.9 7.0 7.1 7.0 7.1 7.1 7.0 6.9 6.5 6.1 5.5 5.5 5.2 5.7 5.9 5.6 5.8 5.9 6.0 5.9 5.5
6.8 6.9 6.8 6.6 6.5 6.6 6.7 6.7 6.5 6.3 6.4 6.4 6.6 6.5 6.6 6.7 6.2 6.0 6.1 6.3 6.3 6.2 6.4 6.6 6.8 7.1 7.0 6.9 6.6 6.9 6.5 6.2 6.1 5.7 5.4 5.3 5.6 6.0 5.9 6.0 6.1 5.7 5.4
6.9 6.9 6.7 6.6 6.6 6.6 6.6 6.4 6.2 6.2 6.4 6.4 6.4 6.3 6.3 6.2 6.2 6.1 6.1 6.2 6.5 6.4 6.2 6.3 6.4 6.6 6.6 6.6 6.7 6.6 6.6 6.6 6.3 6.0 5.8 5.5 5.5 5.9 5.8 5.9 6.0 6.1 5.3
6.6 6.7 6.8 6.7 6.2 6.2 6.0 6.1 6.2 6.3 6.4 6.6 6.6 6.6 6.5 6.3 6.3 6.2 6.2 6.3 6.5 6.4 6.3 6.3 6.1 6.3 6.3 6.5 6.5 6.4 6.4 6.6 6.4 6.3 6.4 6.1 5.8 5.7 6.0 5.8 5.7 5.0 5.2
6.3 6.5 6.6 6.3 6.0 5.8 6.1 6.1 6.2 6.4 6.6 6.6 6.6 6.5 6.6 6.6 6.6 6.7 6.6 6.6 6.7 6.5 6.2 6.3 6.4 6.3 6.2 6.3 6.4 6.4 6.4 6.5 6.5 6.3 6.2 6.4 6.3 6.2 6.1 6.2 6.1 5.4 5.0
6.5 6.1 6.2 6.1 6.0 6.1 6.4 6.7 6.8 6.8 6.9 6.8 6.8 6.7 6.5 6.5 6.5 6.7 6.7 6.6 6.6 6.7 6.5 6.3 6.4 6.5 6.4 6.4 6.4 6.4 6.4 6.5 6.5 6.5 6.3 6.1 6.3 6.5 6.4 6.3 6.2 5.8 5.4
6.5 6.1 6.2 6.5 6.5 6.5 6.6 7.0 7.1 6.7 6.6 6.6 6.6 6.7 6.6 6.5 6.7 6.8 6.8 6.8 6.8 6.8 6.9 6.7 6.5 6.4 6.6 6.6 6.5 6.5 6.4 6.4 6.2 6.4 6.5 6.2 6.0 6.2 6.4 6.4 6.4 6.0 5.5
5.9 6.2 6.4 6.5 6.6 6.8 6.9 6.8 6.5 6.4 6.5 6.7 6.7 6.9 6.8 6.8 6.8 6.9 6.9 6.9 6.9 6.9 6.9 6.7 6.8 6.8 6.7 6.7 6.5 6.6 6.5 6.1 5.9 5.9 6.0 6.0 5.9 5.8 6.0 6.1 6.2 6.4 6.0
6.1 6.5 6.7 6.8 6.8 6.6 6.5 6.4 6.4 6.6 6.6 6.7 6.7 6.7 6.7 6.8 6.9 7.0 6.9 7.0 7.1 7.0 7.0 6.9 6.7 6.7 6.8 6.9 6.8 6.9 6.7 6.2 5.9 5.8 5.5 5.1 5.5 5.4 5.6 5.7 5.8 6.1 6.4
6.7 6.8 6.9 6.9 6.8 6.6 6.4 6.5 6.5 6.5 6.4 6.4 6.4 6.5 6.8 6.9 7.0 7.1 7.1 7.1 7.1 7.2 7.1 7.1 7.1 7.0 6.9 6.9 6.8 7.0 7.0 6.4 6.1 5.9 5.5 5.0 5.1 5.2 5.1 5.2 5.3 5.6 6.0
7.0 7.0 6.9 6.9 6.8 6.7 6.5 6.5 6.5 6.4 6.3 6.4 6.7 6.8 6.8 6.8 6.9 7.0 7.1 7.1 7.3 7.2 7.1 7.1 7.1 7.1 7.0 6.9 7.2 7.1 6.9 6.8 6.2 5.8 5.3 4.8 4.5 4.3 4.6 4.8 5.0 5.0 5.4
6.9 6.8 6.9 6.9 6.7 6.5 6.4 6.3 6.3 6.2 6.3 6.4 6.5 6.6 6.7 6.8 6.9 7.0 7.1 7.1 7.2 7.1 7.1 7.0 7.1 7.2 7.1 7.0 7.0 7.0 7.0 6.8 6.3 6.1 5.5 4.7 4.2 3.8 3.9 4.0 4.2 4.3 4.8
6.7 6.9 7.1 6.9 6.7 6.5 6.3 6.2 6.2 6.1 6.3 6.4 6.5 6.6 6.8 6.8 6.9 7.0 7.1 7.1 7.1 7.1 7.1 7.0 7.0 7.0 6.9 7.1 7.2 6.9 6.8 6.5 6.2 6.0 5.5 4.6 4.1 3.7 3.6 3.7 3.9 4.0 4.0
6.8 7.0 6.8 6.8 6.7 6.4 6.1 6.1 6.1 6.1 6.2 6.4 6.5 6.5 6.6 6.8 6.9 7.1 7.1 7.2 7.2 7.2 7.2 7.1 6.9 6.9 6.9 7.0 6.9 6.7 6.4 6.5 6.5 6.2 5.4 4.9 4.2 3.9 3.6 3.6 3.7 3.9 4.0
6.8 6.7 6.7 6.6 6.5 6.3 6.0 5.9 6.0 6.2 6.3 6.5 6.4 6.5 6.6 6.8 6.9 7.0 7.1 7.1 7.0 7.1 7.2 7.2 6.9 6.8 6.7 6.8 6.5 6.4 6.3 6.3 6.3 6.1 5.8 5.3 4.7 4.4 4.2 3.8 3.7 3.8 3.9
6.7 6.6 6.6 6.5 6.3 6.1 5.9 5.9 6.1 6.3 6.4 6.3 6.3 6.4 6.6 6.7 6.7 6.6 6.7 6.7 6.8 6.8 7.0 7.2 6.8 6.5 6.4 6.6 6.5 6.4 6.4 6.2 6.0 5.9 5.7 5.6 5.4 5.1 4.7 4.3 4.2 4.1 4.2
6.7 6.7 6.5 6.3 6.1 5.9 5.8 6.0 6.1 6.3 6.3 6.3 6.3 6.3 6.3 6.5 6.5 6.6 6.5 6.5 6.6 6.6 6.7 6.8 6.6 6.3 6.3 6.4 6.3 6.1 6.1 5.9 5.9 5.7 5.6 5.4 5.3 5.1 5.1 5.1 5.1 5.1 5.0
Wind_Speed
3 4 4 5 6 7 7 7 8 9 10 11 11 11 11 12 13 11 15 11 9 8 7 7 9 11 13 14 17 19 19 22 26 28 29 28 31 30 27 26 26 26 25
6 5 4 5 6 8 10 9 8 7 8 9 9 10 10 12 12 11 10 11 7 7 10 11 10 11 15 18 17 18 18 20 23 27 27 22 29 32 28 28 27 27 27
7 6 5 5 9 9 9 10 10 10 8 7 10 9 10 11 11 11 11 11 9 8 28 26 22 17 13 15 18 16 14 18 18 20 24 28 30 34 32 29 29 29 28
8 6 5 5 8 9 10 8 7 7 8 8 8 9 9 9 10 11 12 9 13 10 14 20 24 23 18 19 15 13 17 13 15 17 18 27 35 36 32 30 29 30 30
8 6 7 8 8 7 6 7 7 7 8 8 9 10 9 9 9 8 7 5 13 10 8 13 16 20 21 21 22 21 20 15 13 18 22 23 28 25 15 17 24 31 34
8 6 6 7 7 6 6 7 8 8 8 8 10 9 7 8 6 5 7 7 8 7 9 10 9 11 15 18 21 22 25 26 25 23 24 21 27 27 26 21 13 24 34
8 8 6 7 8 6 8 9 8 9 6 10 9 9 7 3 5 6 4 4 4 5 7 7 8 8 8 12 17 21 24 24 26 27 29 28 13 23 22 26 26 29 34
9 9 6 5 7 4 7 8 9 7 5 8 8 8 4 2 6 1 4 3 5 8 5 4 5 8 7 7 12 17 22 25 26 26 26 26 24 15 23 25 27 26 27
8 7 7 7 6 6 6 7 8 9 7 6 8 6 5 5 9 4 1 4 7 8 8 9 9 7 3 4 7 12 23 27 27 26 25 23 23 22 23 14 23 25 22
8 7 7 8 7 5 6 6 7 7 7 6 5 6 5 3 4 5 7 6 9 6 8 7 7 9 11 15 12 19 27 27 28 25 23 22 20 19 20 20 17 19 19
8 7 8 9 7 6 6 6 7 8 6 6 5 6 6 3 1 5 7 7 7 6 5 5 8 11 15 14 14 19 25 25 24 25 25 23 20 18 18 18 17 12 11
5 6 8 7 7 6 5 5 6 7 7 6 6 5 5 5 6 5 8 9 9 7 4 6 7 9 13 14 15 22 25 22 21 25 28 25 22 19 17 15 16 13 11
4 5 6 6 5 6 6 5 5 5 6 5 7 5 4 4 5 6 7 8 9 8 2 5 6 11 14 15 16 25 21 16 21 24 29 20 17 17 17 16 15 16 8
4 5 6 5 5 5 5 6 4 4 5 5 6 6 5 4 5 5 5 7 8 8 4 5 7 10 14 15 17 23 18 22 20 24 26 20 17 15 16 16 16 15 15
5 5 5 5 5 5 5 4 4 5 3 4 4 6 5 5 4 5 6 6 6 6 8 7 9 11 14 15 19 19 17 18 21 25 23 21 21 18 18 19 18 19 19
6 5 5 4 4 4 5 4 3 4 4 4 4 6 6 6 6 5 5 5 6 6 6 9 9 10 14 15 19 19 18 17 23 25 21 21 24 23 21 21 21 21 21
5 4 5 4 4 3 4 5 4 4 4 4 6 6 7 7 5 5 5 5 6 7 8 8 9 10 11 12 14 17 17 15 16 22 22 24 25 27 26 26 25 24 22
5 5 5 5 3 4 5 4 4 4 4 6 6 7 8 7 8 8 6 7 7 8 8 11 10 8 10 12 12 12 12 12 12 19 21 23 25 28 30 31 29 27 27
6 5 5 4 4 4 4 3 5 4 5 7 6 8 9 9 9 8 8 7 7 7 8 8 8 8 8 11 11 10 9 10 10 11 12 17 23 26 28 30 31 33 32
7 6 6 5 4 4 3 3 4 5 5 6 7 8 10 10 10 10 9 9 9 8 7 7 7 8 8 11 9 9 7 7 7 10 11 9 14 21 27 28 31 32 33
6 6 6 6 6 5 5 6 5 5 5 6 7 8 9 10 9 10 7 9 11 9 7 7 7 7 8 10 10 9 7 8 5 10 8 8 10 13 18 23 26 30 31
7 5 6 6 7 6 7 10 9 6 7 8 7 7 8 12 8 7 10 10 11 10 9 7 7 8 9 10 10 9 7 7 5 15 8 4 9 7 13 18 26 28 29
9 7 6 8 9 7 7 8 10 7 7 7 7 7 6 8 10 7 5 4 8 12 12 9 8 8 8 11 12 11 10 6 4 8 9 4 7 4 10 16 23 26 27
7 7 7 4 8 6 6 5 5 6 6 7 8 7 6 8 10 7 6 5 5 6 10 9 7 7 9 14 13 10 10 7 5 10 12 4 7 6 4 12 24 22 28
8 7 6 6 7 7 4 2 3 5 5 6 6 10 8 8 11 9 4 4 5 6 5 3 4 7 10 15 18 9 9 7 4 6 9 4 6 6 2 6 16 23 24
8 7 7 5 9 7 5 3 3 3 4 4 3 6 12 9 11 11 6 4 4 6 6 6 6 9 10 13 17 15 9 8 8 5 9 7 7 7 4 7 11 17 14
Wind_Direction
46 30 30 16 11 358 356 342 338 333 324 320 324 312 309 310 298 281 296 353 5 340 323 287 271 275 278 282 285 277 262 249 240 231 228 221 225 214 209 205 203 202 200
24 38 31 22 12 0 346 339 343 326 324 313 309 308 309 301 298 298 298 295 286 278 279 290 289 272 272 272 264 270 275 264 252 241 235 231 249 228 212 208 205 204 202
50 21 35 18 11 356 348 347 337 334 323 320 312 312 305 294 295 296 296 287 275 78 53 49 32 23 354 312 290 279 280 286 276 260 236 222 233 240 220 211 209 207 205
40 42 39 29 4 3 360 350 343 336 330 325 323 315 310 299 291 290 276 285 77 80 67 56 49 38 35 27 357 313 289 274 284 275 259 238 230 228 224 217 214 210 209
49 42 38 28 5 15 13 355 343 339 330 327 318 313 301 295 296 299 308 22 45 35 56 66 68 49 32 38 31 24 14 2 341 309 269 251 232 222 210 228 232 227 221
59 43 54 33 14 18 10 359 350 346 328 339 319 298 296 298 291 285 77 35 37 36 44 43 49 56 46 33 33 27 23 18 14 11 357 280 236 208 202 209 246 258 241
72 51 44 37 20 35 11 8 352 350 358 355 322 330 293 181 29 332 53 57 19 34 29 36 40 44 34 49 28 27 19 14 5 8 5 356 272 210 212 208 208 249 271
59 61 48 40 26 30 34 19 6 357 7 17 352 305 344 169 24 97 3 13 26 351 4 34 20 38 32 22 35 25 18 8 359 357 360 3 360 343 221 228 224 232 260
71 64 61 55 32 23 24 25 15 16 350 21 27 6 336 351 342 73 291 4 13 349 324 336 346 3 72 40 10 24 13 3 352 349 348 353 352 355 351 275 222 233 230
79 70 63 60 54 42 25 16 22 4 8 12 12 13 8 322 336 324 342 17 345 3 6 335 357 9 11 10 23 35 9 356 348 344 338 339 342 341 341 341 334 239 234
82 70 60 54 49 45 37 21 22 16 17 4 14 4 358 307 318 306 311 341 349 20 9 30 12 19 12 1 348 9 352 348 347 341 336 329 328 328 327 329 330 324 333
105 77 73 65 50 46 31 29 27 27 20 21 359 10 11 353 351 334 326 329 326 350 326 50 22 29 5 1 3 6 345 332 350 344 333 323 321 318 317 314 316 330 334
110 84 81 70 59 45 41 31 38 35 34 29 14 355 14 8 346 335 324 333 320 306 334 81 23 26 7 2 6 359 335 13 2 357 346 333 324 324 328 324 314 304 321
102 103 92 83 73 52 45 25 38 33 22 19 14 6 339 9 353 343 342 325 330 321 329 51 12 21 6 360 24 349 347 22 18 3 358 360 360 1 353 348 340 332 319
124 110 103 89 66 62 51 43 48 11 17 19 3 9 350 356 356 338 329 330 330 324 323 10 346 3 359 354 20 351 356 12 30 14 8 18 19 20 11 9 9 7 352
123 138 109 97 92 67 59 48 42 35 15 27 11 20 359 355 339 346 331 326 318 321 309 328 337 344 355 356 4 1 5 36 27 14 23 28 29 31 27 24 21 16 12
149 122 111 104 78 80 62 65 57 38 35 31 22 23 5 348 351 352 335 325 326 329 317 319 329 339 347 3 355 5 11 30 22 13 31 35 35 33 36 33 28 26 22
146 127 121 113 126 84 69 67 55 41 35 42 24 22 12 357 354 355 338 343 323 328 324 316 329 342 354 11 349 9 10 26 38 28 43 41 39 36 33 33 31 28 23
142 131 130 133 111 92 93 81 86 65 48 44 28 34 22 7 4 356 335 351 342 331 318 325 324 359 1 8 349 5 5 13 32 33 42 47 45 39 35 32 31 28 27
149 141 134 121 112 102 94 92 87 74 61 58 42 48 36 23 9 2 340 3 355 339 337 338 338 356 12 0 354 349 0 17 24 14 13 50 51 43 39 32 30 29 27
148 140 130 118 99 76 33 358 85 71 51 54 50 47 54 39 35 22 4 4 4 355 359 349 5 5 8 1 352 340 6 350 68 26 350 26 31 47 36 37 31 29 29
140 136 129 123 100 74 39 19 360 82 63 49 37 30 41 34 25 67 36 30 21 13 9 4 11 9 5 360 344 340 359 345 6 22 345 13 1 46 53 34 35 30 29
123 118 58 87 80 90 63 47 32 64 75 57 46 26 28 36 18 3 48 27 47 28 22 10 19 19 4 354 341 340 345 337 40 23 347 32 5 16 54 43 28 32 27
119 113 126 117 110 102 99 82 76 94 90 71 58 32 32 34 27 7 16 17 39 52 27 21 28 19 7 360 349 335 328 325 128 56 8 354 3 342 337 48 32 23 27
139 139 142 143 128 111 126 131 284 132 108 92 76 53 32 37 25 14 31 33 33 29 53 28 22 26 23 21 14 9 5 20 23 59 21 318 354 334 353 62 36 18 30
141 149 149 143 121 122 114 114 338 125 129 120 103 93 55 43 33 33 27 20 50 46 11 25 31 36 32 33 35 28 17 24 12 18 11 335 357 354 319 35 41 12 18